Location: Grieser Field
(39.7333°N, 81.7975°W)
Time: 19:17:06
(UTC-04:00)

Hubble Space Telescope - Visible Passes

Search period start: 22 May 2017 00:00
Search period end: 01 June 2017 00:00
Orbit: 538 x 541 km, 28.5° (Epoch: 21 May)

Date Brightness Start Highest point End Pass type
(mag) Time Alt. Az. Time Alt. Az. Time Alt. Az.
22 May 2.8 04:32:20 14° S 04:32:20 14° S 04:33:35 10° SSE visible
28 May 3.0 22:16:27 10° SSW 22:17:02 11° S 22:17:02 11° S visible
29 May 2.6 22:05:57 10° SSW 22:08:03 14° S 22:08:03 14° S visible
30 May 2.5 21:55:34 10° SSW 21:58:04 16° S 21:58:52 15° SSE visible
31 May 2.5 21:45:15 10° SW 21:47:53 16° S 21:49:32 14° SSE visible
